| time (UTC) | temp F | wind direction | speed MPH | gust MPH | rain 1hr in | rain 24hr in | rain mn in | humidity % | barometer mb |
| 20260507180123 | 73 | 280 | 14.0 | 31.0 | 0.00 | 0.01 | 0.01 | 64 | 1009.3 |
| 20260507175533 | 73 | 277 | 16.0 | 32.0 | 0.00 | 0.01 | 0.01 | 64 | 1009.4 |
| 20260507175035 | 74 | 288 | 18.0 | 32.0 | 0.00 | 0.01 | 0.01 | 63 | 1009.6 |
| 20260507174638 | 74 | 257 | 16.0 | 33.0 | 0.00 | 0.01 | 0.01 | 63 | 1009.6 |
| 20260507174025 | 75 | 263 | 22.0 | 33.0 | 0.00 | 0.01 | 0.01 | 62 | 1009.6 |
| 20260507173546 | 75 | 266 | 21.0 | 33.0 | 0.00 | 0.01 | 0.01 | 62 | 1009.6 |
| 20260507173132 | 75 | 281 | 14.0 | 31.0 | 0.00 | 0.01 | 0.01 | 62 | 1009.7 |
| 20260507172532 | 75 | 290 | 18.0 | 35.0 | 0.00 | 0.01 | 0.01 | 63 | 1009.6 |
| 20260507172026 | 75 | 262 | 16.0 | 42.0 | 0.00 | 0.01 | 0.01 | 63 | 1009.8 |
| 20260507171606 | 76 | 259 | 24.0 | 38.0 | 0.00 | 0.01 | 0.01 | 61 | 1009.8 |
| 20260507171041 | 77 | 259 | 18.0 | 39.0 | 0.00 | 0.01 | 0.01 | 60 | 1009.8 |
| 20260507170533 | 77 | 261 | 26.0 | 39.0 | 0.00 | 0.01 | 0.01 | 61 | 1009.7 |
| 20260507170117 | 77 | 265 | 21.0 | 35.0 | 0.00 | 0.01 | 0.01 | 62 | 1010.1 |
| 20260507165542 | 77 | 277 | 18.0 | 35.0 | 0.00 | 0.01 | 0.01 | 61 | 1010.1 |
| 20260507165042 | 77 | 265 | 15.0 | 33.0 | 0.00 | 0.01 | 0.01 | 63 | 1010.0 |
| 20260507164641 | 77 | 263 | 20.0 | 33.0 | 0.00 | 0.01 | 0.01 | 63 | 1010.1 |
| 20260507164020 | 76 | 261 | 17.0 | 39.0 | 0.00 | 0.01 | 0.01 | 63 | 1010.1 |
| 20260507163527 | 76 | 277 | 22.0 | 39.0 | 0.00 | 0.01 | 0.01 | 63 | 1010.2 |
| 20260507163133 | 75 | 257 | 23.0 | 39.0 | 0.00 | 0.01 | 0.01 | 62 | 1010.2 |
| 20260507162540 | 75 | 294 | 21.0 | 39.0 | 0.00 | 0.01 | 0.01 | 64 | 1010.5 |
| 20260507162035 | 74 | 261 | 22.0 | 36.0 | 0.00 | 0.01 | 0.01 | 64 | 1010.6 |
| 20260507161631 | 75 | 263 | 21.0 | 40.0 | 0.00 | 0.01 | 0.01 | 62 | 1010.7 |
| 20260507161029 | 75 | 293 | 23.0 | 40.0 | 0.00 | 0.01 | 0.01 | 62 | 1010.7 |
| 20260507160541 | 75 | 261 | 18.0 | 44.0 | 0.00 | 0.01 | 0.01 | 63 | 1010.8 |
| 20260507160137 | 75 | 261 | 21.0 | 44.0 | 0.00 | 0.01 | 0.01 | 62 | 1010.8 |
| 20260507155535 | 75 | 280 | 24.0 | 35.0 | 0.00 | 0.01 | 0.01 | 62 | 1010.9 |
| 20260507155026 | 75 | 268 | 20.0 | 39.0 | 0.00 | 0.01 | 0.01 | 63 | 1010.9 |
| 20260507154639 | 76 | 284 | 21.0 | 39.0 | 0.00 | 0.01 | 0.01 | 62 | 1010.9 |
| 20260507154041 | 76 | 275 | 23.0 | 38.0 | 0.00 | 0.01 | 0.01 | 64 | 1011.0 |
| 20260507153548 | 76 | 272 | 21.0 | 34.0 | 0.00 | 0.01 | 0.01 | 64 | 1011.1 |
| 20260507153133 | 76 | 268 | 14.0 | 34.0 | 0.00 | 0.01 | 0.01 | 64 | 1011.2 |
| 20260507152545 | 75 | 261 | 15.0 | 33.0 | 0.00 | 0.01 | 0.01 | 65 | 1011.0 |
| 20260507152043 | 75 | 263 | 19.0 | 34.0 | 0.00 | 0.01 | 0.01 | 63 | 1011.1 |
| 20260507151635 | 75 | 268 | 24.0 | 36.0 | 0.00 | 0.01 | 0.01 | 64 | 1011.6 |
| 20260507151041 | 74 | 286 | 16.0 | 36.0 | 0.00 | 0.01 | 0.01 | 66 | 1011.9 |
| 20260507150520 | 74 | 269 | 16.0 | 32.0 | 0.00 | 0.01 | 0.01 | 67 | 1011.9 |
| 20260507150142 | 73 | 261 | 19.0 | 28.0 | 0.00 | 0.01 | 0.01 | 68 | 1012.2 |
| 20260507145532 | 72 | 264 | 14.0 | 31.0 | 0.00 | 0.01 | 0.01 | 69 | 1012.2 |
| 20260507145034 | 71 | 261 | 14.0 | 27.0 | 0.00 | 0.01 | 0.01 | 71 | 1012.2 |
| 20260507144635 | 71 | 259 | 16.0 | 27.0 | 0.00 | 0.01 | 0.01 | 71 | 1012.3 |
| 20260507144027 | 71 | 265 | 15.0 | 31.0 | 0.00 | 0.01 | 0.01 | 71 | 1012.5 |
| 20260507143542 | 71 | 306 | 17.0 | 31.0 | 0.00 | 0.01 | 0.01 | 71 | 1012.8 |
| 20260507143103 | 71 | 259 | 14.0 | 29.0 | 0.00 | 0.01 | 0.01 | 71 | 1012.8 |
| 20260507142541 | 72 | 255 | 15.0 | 28.0 | 0.00 | 0.01 | 0.01 | 70 | 1013.2 |
| 20260507142019 | 72 | 294 | 17.0 | 31.0 | 0.00 | 0.01 | 0.01 | 70 | 1013.2 |
| 20260507141634 | 72 | 281 | 20.0 | 31.0 | 0.00 | 0.01 | 0.01 | 71 | 1013.3 |
| 20260507141037 | 72 | 272 | 14.0 | 28.0 | 0.00 | 0.01 | 0.01 | 72 | 1013.5 |
| 20260507140533 | 71 | 257 | 16.0 | 31.0 | 0.00 | 0.01 | 0.01 | 71 | 1013.6 |
| 20260507140141 | 71 | 282 | 17.0 | 31.0 | 0.00 | 0.01 | 0.01 | 71 | 1013.8 |
| 20260507135530 | 71 | 272 | 18.0 | 27.0 | 0.00 | 0.01 | 0.01 | 71 | 1013.9 |
| 20260507135024 | 71 | 263 | 11.0 | 23.0 | 0.00 | 0.01 | 0.01 | 72 | 1014.0 |
| 20260507134634 | 70 | 297 | 12.0 | 19.0 | 0.00 | 0.01 | 0.01 | 73 | 1014.0 |
| 20260507134021 | 70 | 265 | 11.0 | 21.0 | 0.00 | 0.01 | 0.01 | 72 | 1014.2 |
| 20260507133521 | 70 | 263 | 13.0 | 21.0 | 0.00 | 0.01 | 0.01 | 72 | 1014.2 |
| 20260507133153 | 70 | 261 | 9.0 | 23.0 | 0.00 | 0.01 | 0.01 | 73 | 1014.4 |
| 20260507132526 | 70 | 265 | 13.0 | 29.0 | 0.00 | 0.01 | 0.01 | 73 | 1014.4 |
| 20260507132041 | 69 | 293 | 15.0 | 29.0 | 0.00 | 0.01 | 0.01 | 73 | 1014.4 |
| 20260507131647 | 69 | 277 | 10.0 | 26.0 | 0.00 | 0.01 | 0.01 | 74 | 1014.6 |
| 20260507131044 | 70 | 273 | 13.0 | 26.0 | 0.00 | 0.01 | 0.01 | 74 | 1014.4 |
| 20260507130541 | 70 | 288 | 13.0 | 25.0 | 0.00 | 0.01 | 0.01 | 73 | 1014.5 |
| 20260507130154 | 70 | 277 | 13.0 | 25.0 | 0.00 | 0.01 | 0.01 | 74 | 1014.4 |
| 20260507125526 | 70 | 281 | 16.0 | 25.0 | 0.00 | 0.01 | 0.01 | 75 | 1014.5 |
| 20260507125042 | 69 | 282 | 10.0 | 18.0 | 0.00 | 0.01 | 0.01 | 77 | 1014.7 |
| 20260507124653 | 68 | 259 | 12.0 | 23.0 | 0.00 | 0.01 | 0.01 | 77 | 1014.7 |
| 20260507124019 | 68 | 262 | 13.0 | 23.0 | 0.00 | 0.01 | 0.01 | 77 | 1014.7 |
| 20260507123517 | 68 | 271 | 11.0 | 24.0 | 0.00 | 0.01 | 0.01 | 77 | 1014.9 |
| 20260507123201 | 68 | 271 | 12.0 | 24.0 | 0.00 | 0.01 | 0.01 | 77 | 1014.7 |
| 20260507122529 | 67 | 247 | 10.0 | 20.0 | 0.00 | 0.01 | 0.01 | 77 | 1014.7 |
| 20260507122036 | 67 | 261 | 11.0 | 20.0 | 0.00 | 0.01 | 0.01 | 78 | 1014.8 |
| 20260507121700 | 67 | 269 | 11.0 | 17.0 | 0.00 | 0.01 | 0.01 | 79 | 1014.7 |
| 20260507121026 | 66 | 287 | 8.0 | 17.0 | 0.00 | 0.01 | 0.01 | 80 | 1015.0 |
| 20260507120520 | 66 | 261 | 10.0 | 16.0 | 0.00 | 0.01 | 0.01 | 81 | 1014.9 |
| 20260507120155 | 66 | 298 | 9.0 | 16.0 | 0.00 | 0.01 | 0.01 | 81 | 1015.1 |
| 20260507115526 | 66 | 273 | 9.0 | 17.0 | 0.00 | 0.01 | 0.01 | 82 | 1015.2 |
| 20260507115040 | 65 | 347 | 10.0 | 17.0 | 0.00 | 0.01 | 0.01 | 82 | 1015.4 |
| 20260507114707 | 65 | 262 | 7.0 | 20.0 | 0.00 | 0.01 | 0.01 | 82 | 1015.2 |
| 20260507114026 | 65 | 292 | 9.0 | 20.0 | 0.00 | 0.01 | 0.01 | 81 | 1015.2 |
| 20260507113524 | 65 | 273 | 8.0 | 19.0 | 0.00 | 0.01 | 0.01 | 82 | 1015.3 |
| 20260507113126 | 65 | 284 | 8.0 | 17.0 | 0.00 | 0.01 | 0.01 | 82 | 1015.3 |
| 20260507112515 | 65 | 267 | 7.0 | 17.0 | 0.00 | 0.01 | 0.01 | 82 | 1015.3 |
| 20260507112028 | 65 | 254 | 8.0 | 14.0 | 0.00 | 0.01 | 0.01 | 82 | 1015.4 |
| 20260507111700 | 65 | 261 | 6.0 | 14.0 | 0.00 | 0.01 | 0.01 | 82 | 1015.4 |
| 20260507111024 | 65 | 323 | 5.0 | 13.0 | 0.00 | 0.01 | 0.01 | 82 | 1015.3 |
| 20260507110533 | 65 | 286 | 7.0 | 13.0 | 0.00 | 0.01 | 0.01 | 82 | 1015.4 |
| 20260507110205 | 64 | 310 | 7.0 | 13.0 | 0.00 | 0.01 | 0.01 | 82 | 1015.5 |
| 20260507105538 | 64 | 305 | 5.0 | 13.0 | 0.00 | 0.01 | 0.01 | 82 | 1015.4 |
| 20260507105031 | 64 | 9 | 8.0 | 15.0 | 0.01 | 0.01 | 0.01 | 83 | 1015.4 |
| 20260507104655 | 64 | 309 | 7.0 | 15.0 | 0.01 | 0.01 | 0.01 | 83 | 1015.2 |
| 20260507104015 | 64 | 317 | 9.0 | 17.0 | 0.01 | 0.01 | 0.01 | 83 | 1015.3 |
| 20260507103533 | 64 | 338 | 9.0 | 17.0 | 0.01 | 0.01 | 0.01 | 83 | 1015.4 |
| 20260507103155 | 64 | 323 | 6.0 | 16.0 | 0.01 | 0.01 | 0.01 | 83 | 1015.4 |
| 20260507102521 | 64 | 265 | 8.0 | 14.0 | 0.01 | 0.01 | 0.01 | 82 | 1015.1 |
| 20260507102037 | 64 | 269 | 7.0 | 14.0 | 0.01 | 0.01 | 0.01 | 82 | 1015.3 |
| 20260507101649 | 64 | 289 | 6.0 | 10.0 | 0.01 | 0.01 | 0.01 | 82 | 1015.1 |
| 20260507101038 | 64 | 265 | 4.0 | 9.0 | 0.01 | 0.01 | 0.01 | 82 | 1015.2 |
| 20260507100519 | 64 | 57 | 6.0 | 14.0 | 0.01 | 0.01 | 0.01 | 82 | 1015.4 |
| 20260507100154 | 65 | 311 | 6.0 | 14.0 | 0.01 | 0.01 | 0.01 | 82 | 1015.5 |
| 20260507095520 | 65 | 334 | 4.0 | 9.0 | 0.01 | 0.01 | 0.01 | 81 | 1015.2 |
| 20260507095032 | 65 | 257 | 4.0 | 9.0 | 0.00 | 0.00 | 0.00 | 81 | 1015.2 |
| 20260507094625 | 65 | 261 | 4.0 | 10.0 | 0.00 | 0.00 | 0.00 | 81 | 1015.2 |
| 20260507094017 | 65 | 70 | 4.0 | 11.0 | 0.00 | 0.00 | 0.00 | 81 | 1015.3 |
| 20260507093527 | 65 | 51 | 3.0 | 11.0 | 0.00 | 0.00 | 0.00 | 81 | 1015.4 |
| 20260507093112 | 65 | 51 | 4.0 | 10.0 | 0.00 | 0.00 | 0.00 | 81 | 1015.5 |
| 20260507092546 | 65 | 296 | 4.0 | 10.0 | 0.00 | 0.00 | 0.00 | 81 | 1015.3 |
| 20260507092025 | 65 | 310 | 4.0 | 11.0 | 0.00 | 0.00 | 0.00 | 81 | 1015.3 |
| 20260507091653 | 65 | 259 | 5.0 | 11.0 | 0.00 | 0.00 | 0.00 | 80 | 1015.2 |
| 20260507091023 | 65 | 304 | 6.0 | 11.0 | 0.00 | 0.00 | 0.00 | 80 | 1015.4 |
| 20260507090542 | 65 | 317 | 4.0 | 10.0 | 0.00 | 0.00 | 0.00 | 80 | 1015.3 |
| 20260507090157 | 65 | 279 | 5.0 | 11.0 | 0.00 | 0.00 | 0.00 | 80 | 1015.3 |
| 20260507085533 | 65 | 282 | 5.0 | 14.0 | 0.00 | 0.00 | 0.00 | 79 | 1015.5 |
| 20260507085016 | 65 | 54 | 6.0 | 13.0 | 0.00 | 0.00 | 0.00 | 79 | 1015.5 |
| 20260507084624 | 65 | 284 | 7.0 | 13.0 | 0.00 | 0.00 | 0.00 | 79 | 1015.4 |
| 20260507084032 | 65 | 300 | 5.0 | 14.0 | 0.00 | 0.00 | 0.00 | 79 | 1015.4 |
| 20260507083517 | 65 | 323 | 5.0 | 14.0 | 0.00 | 0.00 | 0.00 | 79 | 1015.5 |
| 20260507083147 | 65 | 309 | 4.0 | 11.0 | 0.00 | 0.00 | 0.00 | 79 | 1015.6 |
| 20260507082539 | 65 | 268 | 6.0 | 11.0 | 0.00 | 0.00 | 0.00 | 79 | 1015.5 |
| 20260507082023 | 65 | 268 | 4.0 | 10.0 | 0.00 | 0.00 | 0.00 | 79 | 1015.7 |
| 20260507081644 | 65 | 259 | 6.0 | 12.0 | 0.00 | 0.00 | 0.00 | 79 | 1015.5 |
| 20260507081038 | 65 | 289 | 6.0 | 12.0 | 0.00 | 0.00 | 0.00 | 80 | 1015.6 |
| 20260507080532 | 65 | 286 | 4.0 | 9.0 | 0.00 | 0.00 | 0.00 | 80 | 1015.7 |
| 20260507080151 | 65 | 41 | 3.0 | 9.0 | 0.00 | 0.00 | 0.00 | 80 | 1015.4 |
| 20260507075517 | 65 | 291 | 3.0 | 10.0 | 0.00 | 0.00 | 0.00 | 80 | 1015.7 |
| 20260507075033 | 65 | 55 | 4.0 | 10.0 | 0.00 | 0.00 | 0.00 | 80 | 1015.9 |
| 20260507074630 | 65 | 334 | 3.0 | 9.0 | 0.00 | 0.00 | 0.00 | 81 | 1016.1 |
| 20260507074017 | 65 | 293 | 4.0 | 8.0 | 0.00 | 0.00 | 0.00 | 81 | 1015.9 |
| 20260507073524 | 65 | 262 | 4.0 | 8.0 | 0.00 | 0.00 | 0.00 | 81 | 1016.1 |
| 20260507073135 | 65 | 319 | 4.0 | 10.0 | 0.00 | 0.00 | 0.00 | 81 | 1016.0 |
| 20260507072536 | 65 | 282 | 5.0 | 12.0 | 0.00 | 0.00 | 0.00 | 81 | 1016.1 |
| 20260507072031 | 65 | 265 | 3.0 | 12.0 | 0.00 | 0.00 | 0.00 | 81 | 1016.3 |
| 20260507071630 | 64 | 304 | 4.0 | 10.0 | 0.00 | 0.00 | 0.00 | 82 | 1016.3 |
| 20260507071027 | 64 | 296 | 4.0 | 9.0 | 0.00 | 0.00 | 0.00 | 82 | 1016.3 |
| 20260507070542 | 64 | 309 | 4.0 | 9.0 | 0.00 | 0.00 | 0.00 | 81 | 1016.4 |
| 20260507070116 | 64 | 24 | 4.0 | 13.0 | 0.00 | 0.00 | 0.00 | 81 | 1016.5 |
| 20260507065539 | 65 | 314 | 5.0 | 13.0 | 0.00 | 0.00 | 0.00 | 81 | 1016.5 |
| 20260507065033 | 65 | 332 | 5.0 | 11.0 | 0.00 | 0.00 | 0.00 | 81 | 1016.4 |
| 20260507064700 | 65 | 265 | 4.0 | 11.0 | 0.00 | 0.00 | 0.00 | 80 | 1016.5 |
| 20260507064041 | 65 | 317 | 5.0 | 12.0 | 0.00 | 0.00 | 0.00 | 80 | 1016.7 |
| 20260507063527 | 65 | 265 | 6.0 | 12.0 | 0.00 | 0.00 | 0.00 | 80 | 1016.4 |
| 20260507063141 | 65 | 275 | 6.0 | 14.0 | 0.00 | 0.00 | 0.00 | 80 | 1016.4 |
| 20260507062519 | 64 | 262 | 7.0 | 14.0 | 0.00 | 0.00 | 0.00 | 80 | 1016.5 |
| 20260507062033 | 64 | 272 | 5.0 | 12.0 | 0.00 | 0.00 | 0.00 | 80 | 1016.6 |
| 20260507061926 | 64 | 265 | 4.0 | 11.0 | 0.00 | 0.00 | 0.00 | 80 | 1016.7 |
| 20260507061757 | 64 | 265 | 4.0 | 11.0 | 0.00 | 0.00 | 0.00 | 80 | 1016.7 |
| 20260507061033 | 64 | 300 | 5.0 | 11.0 | 0.00 | 0.00 | 0.00 | 80 | 1016.9 |
| 20260507060535 | 64 | 344 | 7.0 | 14.0 | 0.00 | 0.00 | 0.00 | 80 | 1016.9 |
| 20260507060233 | 64 | 360 | 7.0 | 14.0 | 0.00 | 0.00 | 0.00 | 80 | 1017.0 |
| 20260507055540 | 64 | 309 | 6.0 | 12.0 | 0.00 | 0.01 | 0.00 | 80 | 1017.1 |
| 20260507055033 | 64 | 280 | 7.0 | 14.0 | 0.00 | 0.01 | 0.00 | 81 | 1016.9 |
| 20260507054801 | 63 | 295 | 7.0 | 16.0 | 0.00 | 0.01 | 0.00 | 82 | 1017.2 |
| 20260507054019 | 62 | 302 | 7.0 | 16.0 | 0.00 | 0.01 | 0.00 | 84 | 1017.1 |
| 20260507053537 | 61 | 273 | 5.0 | 8.0 | 0.00 | 0.01 | 0.00 | 84 | 1017.2 |
| 20260507053241 | 61 | 265 | 3.0 | 7.0 | 0.00 | 0.01 | 0.00 | 83 | 1017.4 |
| 20260507052537 | 61 | 268 | 4.0 | 7.0 | 0.00 | 0.01 | 0.00 | 83 | 1017.4 |
| 20260507052042 | 61 | 273 | 3.0 | 8.0 | 0.00 | 0.01 | 0.00 | 83 | 1017.4 |
| 20260507051802 | 61 | 257 | 5.0 | 8.0 | 0.00 | 0.01 | 0.00 | 83 | 1017.5 |
| 20260507051022 | 61 | 269 | 4.0 | 8.0 | 0.00 | 0.01 | 0.00 | 83 | 1017.6 |
| 20260507050542 | 62 | 261 | 4.0 | 7.0 | 0.00 | 0.01 | 0.00 | 84 | 1017.6 |
| 20260507050322 | 62 | 271 | 3.0 | 10.0 | 0.00 | 0.01 | 0.00 | 85 | 1017.7 |
| 20260507045538 | 61 | 265 | 5.0 | 10.0 | 0.00 | 0.01 | 0.00 | 87 | 1017.7 |
| 20260507045037 | 60 | 271 | 1.0 | 9.0 | 0.00 | 0.01 | 0.00 | 89 | 1017.7 |
| 20260507044736 | 59 | 76 | 1.0 | 2.0 | 0.00 | 0.01 | 0.00 | 90 | 1018.1 |
| 20260507044048 | 59 | 76 | 1.0 | 2.0 | 0.00 | 0.01 | 0.00 | 90 | 1018.1 |
| 20260507043531 | 59 | 76 | 1.0 | 2.0 | 0.00 | 0.01 | 0.00 | 90 | 1018.3 |
| 20260507043307 | 59 | 76 | 1.0 | 2.0 | 0.00 | 0.01 | 0.00 | 90 | 1018.5 |
| 20260507042542 | 59 | 76 | 1.0 | 2.0 | 0.00 | 0.01 | 0.00 | 90 | 1018.3 |
| 20260507042029 | 59 | 76 | 1.0 | 2.0 | 0.00 | 0.01 | 0.00 | 90 | 1018.3 |
| 20260507041748 | 59 | 76 | 1.0 | 2.0 | 0.00 | 0.01 | 0.00 | 90 | 1018.6 |
| 20260507041029 | 59 | 76 | 1.0 | 2.0 | 0.00 | 0.01 | 0.00 | 90 | 1018.5 |
| 20260507040525 | 59 | 76 | 1.0 | 2.0 | 0.00 | 0.01 | 0.00 | 91 | 1018.6 |
| 20260507040304 | 59 | 76 | 1.0 | 2.0 | 0.00 | 0.01 | 0.00 | 91 | 1018.6 |
| 20260507035519 | 59 | 76 | 1.0 | 2.0 | 0.00 | 0.01 | 0.00 | 91 | 1018.8 |
| 20260507035025 | 59 | 76 | 1.0 | 2.0 | 0.00 | 0.01 | 0.00 | 91 | 1018.8 |
| 20260507034826 | 59 | 76 | 1.0 | 2.0 | 0.00 | 0.01 | 0.00 | 91 | 1018.9 |
| 20260507034045 | 59 | 76 | 1.0 | 2.0 | 0.00 | 0.01 | 0.00 | 91 | 1018.9 |
| 20260507033532 | 59 | 76 | 1.0 | 2.0 | 0.00 | 0.01 | 0.00 | 91 | 1019.1 |
| 20260507033204 | 58 | 76 | 1.0 | 2.0 | 0.00 | 0.01 | 0.00 | 90 | 1019.1 |
| 20260507032538 | 58 | 76 | 1.0 | 2.0 | 0.00 | 0.01 | 0.00 | 90 | 1019.1 |
| 20260507032041 | 58 | 76 | 1.0 | 2.0 | 0.00 | 0.01 | 0.00 | 90 | 1019.3 |
| 20260507031647 | 58 | 76 | 1.0 | 2.0 | 0.00 | 0.01 | 0.00 | 90 | 1019.3 |
| 20260507031026 | 58 | 76 | 1.0 | 2.0 | 0.00 | 0.01 | 0.00 | 90 | 1019.3 |
| 20260507030542 | 59 | 76 | 0.0 | 2.0 | 0.00 | 0.01 | 0.00 | 90 | 1019.3 |
| 20260507030230 | 59 | 93 | 0.0 | 2.0 | 0.00 | 0.01 | 0.00 | 90 | 1019.6 |
| 20260507025525 | 59 | 137 | 0.0 | 1.0 | 0.00 | 0.01 | 0.01 | 90 | 1019.4 |
| 20260507025041 | 59 | 93 | 0.0 | 1.0 | 0.00 | 0.01 | 0.01 | 91 | 1019.5 |
| 20260507024655 | 59 | 51 | 0.0 | 1.0 | 0.00 | 0.01 | 0.01 | 90 | 1019.6 |
| 20260507024023 | 58 | 34 | 0.0 | 1.0 | 0.00 | 0.01 | 0.01 | 90 | 1019.6 |
| 20260507023536 | 58 | 93 | 0.0 | 1.0 | 0.00 | 0.01 | 0.01 | 90 | 1019.7 |
| 20260507023202 | 58 | 93 | 0.0 | 1.0 | 0.00 | 0.01 | 0.01 | 90 | 1019.8 |
| 20260507022545 | 58 | 178 | 0.0 | 1.0 | 0.00 | 0.01 | 0.01 | 90 | 1019.8 |
| 20260507022025 | 58 | 9 | 0.0 | 1.0 | 0.00 | 0.01 | 0.01 | 89 | 1019.9 |
| 20260507021651 | 58 | 93 | 0.0 | 1.0 | 0.00 | 0.01 | 0.01 | 89 | 1019.8 |
| 20260507021028 | 58 | 51 | 0.0 | 1.0 | 0.00 | 0.01 | 0.01 | 89 | 1019.6 |
| 20260507020538 | 58 | 93 | 0.0 | 1.0 | 0.00 | 0.01 | 0.01 | 89 | 1019.7 |
| 20260507020230 | 58 | 93 | 0.0 | 1.0 | 0.00 | 0.01 | 0.01 | 89 | 1019.7 |
| 20260507015531 | 58 | 51 | 0.0 | 1.0 | 0.00 | 0.01 | 0.01 | 89 | 1019.9 |
| 20260507015033 | 58 | 51 | 0.0 | 1.0 | 0.00 | 0.01 | 0.01 | 89 | 1019.9 |
| 20260507014642 | 58 | 265 | 0.0 | 1.0 | 0.00 | 0.01 | 0.01 | 89 | 1020.0 |
| 20260507014041 | 59 | 93 | 0.0 | 1.0 | 0.00 | 0.01 | 0.01 | 89 | 1020.0 |
| 20260507013525 | 59 | 93 | 0.0 | 1.0 | 0.00 | 0.01 | 0.01 | 89 | 1020.1 |
| 20260507013209 | 59 | 51 | 0.0 | 1.0 | 0.00 | 0.01 | 0.01 | 89 | 1020.2 |
| 20260507012538 | 58 | 309 | 0.0 | 1.0 | 0.00 | 0.01 | 0.01 | 89 | 1020.2 |
| 20260507012044 | 58 | 137 | 0.0 | 1.0 | 0.00 | 0.01 | 0.01 | 88 | 1020.1 |
| 20260507011652 | 58 | 51 | 0.0 | 0.0 | 0.00 | 0.01 | 0.01 | 88 | 1020.2 |
| 20260507011040 | 58 | 93 | 0.0 | 1.0 | 0.00 | 0.01 | 0.01 | 87 | 1020.2 |
| 20260507010524 | 59 | 93 | 0.0 | 1.0 | 0.00 | 0.01 | 0.01 | 87 | 1020.3 |
| 20260507010207 | 59 | 51 | 0.0 | 0.0 | 0.00 | 0.01 | 0.01 | 87 | 1020.2 |
| 20260507005542 | 59 | 93 | 0.0 | 0.0 | 0.00 | 0.01 | 0.01 | 87 | 1020.0 |
| 20260507005033 | 59 | 137 | 0.0 | 0.0 | 0.00 | 0.01 | 0.01 | 86 | 1020.3 |
| 20260507004617 | 59 | 93 | 0.0 | 1.0 | 0.00 | 0.01 | 0.01 | 86 | 1020.2 |
| 20260507004029 | 59 | 178 | 0.0 | 1.0 | 0.00 | 0.01 | 0.01 | 86 | 1020.0 |
| 20260507003526 | 60 | 93 | 0.0 | 1.0 | 0.00 | 0.01 | 0.01 | 87 | 1020.2 |
| 20260507003149 | 60 | 137 | 0.0 | 2.0 | 0.00 | 0.01 | 0.01 | 87 | 1020.2 |
| 20260507002539 | 60 | 178 | 0.0 | 2.0 | 0.00 | 0.01 | 0.01 | 87 | 1020.1 |
| 20260507002031 | 60 | 93 | 0.0 | 2.0 | 0.00 | 0.01 | 0.01 | 87 | 1020.2 |
| 20260507001707 | 60 | 137 | 0.0 | 1.0 | 0.00 | 0.01 | 0.01 | 86 | 1020.3 |
| 20260507001036 | 61 | 51 | 0.0 | 1.0 | 0.00 | 0.01 | 0.01 | 87 | 1020.4 |
| 20260507000544 | 61 | 137 | 0.0 | 1.0 | 0.00 | 0.01 | 0.01 | 87 | 1020.4 |
| 20260507000240 | 61 | 51 | 0.0 | 0.0 | 0.00 | 0.01 | 0.01 | 86 | 1020.3 |
| 20260506235530 | 61 | 9 | 0.0 | 1.0 | 0.00 | 0.01 | 0.01 | 86 | 1020.2 |
| 20260506235025 | 61 | 9 | 0.0 | 1.0 | 0.00 | 0.01 | 0.01 | 86 | 1020.3 |
| 20260506234643 | 61 | 265 | 0.0 | 1.0 | 0.00 | 0.01 | 0.01 | 86 | 1020.2 |
| 20260506234022 | 62 | 51 | 0.0 | 2.0 | 0.00 | 0.01 | 0.01 | 87 | 1020.4 |
| 20260506233536 | 62 | 51 | 0.0 | 2.0 | 0.00 | 0.01 | 0.01 | 87 | 1020.3 |
| 20260506233121 | 62 | 178 | 0.0 | 2.0 | 0.00 | 0.01 | 0.01 | 86 | 1020.3 |
| 20260506232543 | 62 | 178 | 0.0 | 2.0 | 0.00 | 0.01 | 0.01 | 86 | 1020.3 |
| 20260506232041 | 62 | 265 | 0.0 | 1.0 | 0.00 | 0.01 | 0.01 | 86 | 1020.5 |
| 20260506231724 | 62 | 67 | 0.0 | 1.0 | 0.00 | 0.01 | 0.01 | 85 | 1020.4 |
| 20260506231024 | 62 | 51 | 0.0 | 1.0 | 0.00 | 0.01 | 0.01 | 85 | 1020.5 |
| 20260506230526 | 63 | 51 | 0.0 | 1.0 | 0.00 | 0.01 | 0.01 | 85 | 1020.7 |
| 20260506230220 | 63 | 137 | 0.0 | 2.0 | 0.00 | 0.01 | 0.01 | 85 | 1020.5 |
| 20260506225538 | 63 | 291 | 0.0 | 2.0 | 0.00 | 0.01 | 0.01 | 84 | 1020.5 |
| 20260506225024 | 63 | 51 | 0.0 | 1.0 | 0.00 | 0.01 | 0.01 | 84 | 1020.5 |
| 20260506224705 | 63 | 265 | 0.0 | 1.0 | 0.00 | 0.01 | 0.01 | 84 | 1020.5 |
| 20260506224029 | 63 | 67 | 0.0 | 1.0 | 0.00 | 0.01 | 0.01 | 84 | 1020.6 |
| 20260506223525 | 64 | 153 | 0.0 | 1.0 | 0.00 | 0.01 | 0.01 | 83 | 1020.6 |
| 20260506223152 | 64 | 137 | 0.0 | 1.0 | 0.00 | 0.01 | 0.01 | 83 | 1020.6 |
| 20260506222539 | 64 | 76 | 0.0 | 2.0 | 0.00 | 0.01 | 0.01 | 83 | 1020.6 |
| 20260506222029 | 65 | 325 | 0.0 | 2.0 | 0.00 | 0.01 | 0.01 | 83 | 1020.5 |
| 20260506221659 | 65 | 51 | 0.0 | 2.0 | 0.00 | 0.01 | 0.01 | 82 | 1020.4 |
| 20260506221029 | 65 | 93 | 0.0 | 1.0 | 0.00 | 0.01 | 0.01 | 83 | 1020.4 |
| 20260506220528 | 65 | 51 | 0.0 | 1.0 | 0.00 | 0.01 | 0.01 | 83 | 1020.4 |
| 20260506220143 | 65 | 9 | 0.0 | 3.0 | 0.00 | 0.01 | 0.01 | 83 | 1020.3 |
| 20260506215541 | 66 | 238 | 0.0 | 3.0 | 0.00 | 0.01 | 0.01 | 82 | 1020.1 |
| 20260506215030 | 66 | 9 | 0.0 | 3.0 | 0.00 | 0.01 | 0.01 | 81 | 1020.0 |
| 20260506214708 | 66 | 9 | 0.0 | 4.0 | 0.00 | 0.01 | 0.01 | 80 | 1020.0 |
| 20260506214024 | 67 | 51 | 1.0 | 4.0 | 0.00 | 0.01 | 0.01 | 79 | 1020.2 |
| 20260506213525 | 67 | 46 | 2.0 | 3.0 | 0.00 | 0.01 | 0.01 | 79 | 1020.0 |
| 20260506213212 | 67 | 9 | 0.0 | 4.0 | 0.00 | 0.01 | 0.01 | 78 | 1020.0 |
| 20260506212527 | 68 | 34 | 2.0 | 4.0 | 0.00 | 0.01 | 0.01 | 78 | 1019.9 |
| 20260506212028 | 69 | 38 | 2.0 | 3.0 | 0.00 | 0.01 | 0.01 | 77 | 1020.2 |
| 20260506211644 | 69 | 93 | 0.0 | 2.0 | 0.00 | 0.01 | 0.01 | 76 | 1020.2 |
| 20260506211032 | 70 | 67 | 0.0 | 1.0 | 0.00 | 0.01 | 0.01 | 75 | 1020.2 |
| 20260506210526 | 70 | 137 | 0.0 | 2.0 | 0.00 | 0.01 | 0.01 | 74 | 1020.3 |
| 20260506210205 | 71 | 178 | 0.0 | 3.0 | 0.00 | 0.01 | 0.01 | 72 | 1020.3 |
| 20260506205525 | 71 | 51 | 0.0 | 3.0 | 0.00 | 0.01 | 0.01 | 71 | 1020.3 |
| 20260506205027 | 72 | 76 | 1.0 | 3.0 | 0.00 | 0.01 | 0.01 | 70 | 1020.2 |
| 20260506204629 | 73 | 80 | 1.0 | 2.0 | 0.00 | 0.01 | 0.01 | 70 | 1020.1 |
| 20260506204042 | 73 | 137 | 0.0 | 1.0 | 0.00 | 0.01 | 0.01 | 70 | 1020.1 |
| 20260506203545 | 74 | 178 | 0.0 | 1.0 | 0.00 | 0.01 | 0.01 | 71 | 1020.1 |
| 20260506203152 | 74 | 51 | 0.0 | 2.0 | 0.00 | 0.01 | 0.01 | 70 | 1020.2 |
| 20260506202538 | 74 | 282 | 0.0 | 3.0 | 0.00 | 0.01 | 0.01 | 69 | 1020.3 |
| 20260506202042 | 75 | 265 | 1.0 | 3.0 | 0.00 | 0.01 | 0.01 | 68 | 1020.1 |
| 20260506201711 | 75 | 265 | 1.0 | 4.0 | 0.00 | 0.01 | 0.01 | 68 | 1020.0 |
| 20260506201036 | 75 | 247 | 1.0 | 6.0 | 0.00 | 0.01 | 0.01 | 67 | 1020.2 |
| 20260506200524 | 76 | 265 | 2.0 | 6.0 | 0.00 | 0.01 | 0.01 | 67 | 1020.1 |
| 20260506200223 | 76 | 291 | 2.0 | 6.0 | 0.00 | 0.01 | 0.01 | 65 | 1020.1 |
| 20260506195545 | 76 | 270 | 3.0 | 7.0 | 0.00 | 0.01 | 0.01 | 66 | 1020.1 |
| 20260506195045 | 76 | 255 | 4.0 | 7.0 | 0.00 | 0.01 | 0.01 | 66 | 1020.2 |
| 20260506194646 | 76 | 265 | 3.0 | 6.0 | 0.00 | 0.01 | 0.01 | 65 | 1020.1 |
| 20260506194045 | 76 | 270 | 3.0 | 10.0 | 0.00 | 0.01 | 0.01 | 65 | 1020.2 |
| 20260506193534 | 76 | 273 | 4.0 | 10.0 | 0.00 | 0.01 | 0.01 | 63 | 1020.1 |
| 20260506193143 | 77 | 265 | 4.0 | 8.0 | 0.00 | 0.01 | 0.01 | 64 | 1020.1 |
| 20260506192527 | 77 | 291 | 4.0 | 10.0 | 0.00 | 0.01 | 0.01 | 64 | 1020.3 |
| 20260506192033 | 77 | 265 | 7.0 | 10.0 | 0.00 | 0.01 | 0.01 | 64 | 1020.2 |
| 20260506191646 | 77 | 275 | 4.0 | 10.0 | 0.00 | 0.01 | 0.01 | 64 | 1020.1 |
| 20260506191025 | 76 | 265 | 6.0 | 13.0 | 0.00 | 0.01 | 0.01 | 64 | 1020.3 |
| 20260506190529 | 77 | 259 | 8.0 | 13.0 | 0.00 | 0.01 | 0.01 | 62 | 1020.2 |
| 20260506190213 | 77 | 261 | 7.0 | 12.0 | 0.00 | 0.01 | 0.01 | 63 | 1020.3 |
| 20260506185532 | 76 | 249 | 6.0 | 12.0 | 0.00 | 0.01 | 0.01 | 64 | 1020.2 |
| 20260506185022 | 76 | 257 | 8.0 | 13.0 | 0.00 | 0.01 | 0.01 | 61 | 1020.3 |
| 20260506184654 | 77 | 257 | 9.0 | 14.0 | 0.00 | 0.01 | 0.01 | 61 | 1020.2 |
| 20260506184022 | 77 | 268 | 9.0 | 17.0 | 0.00 | 0.01 | 0.01 | 61 | 1020.1 |
| 20260506183538 | 77 | 257 | 9.0 | 20.0 | 0.00 | 0.01 | 0.01 | 61 | 1020.1 |
| 20260506183114 | 77 | 265 | 13.0 | 20.0 | 0.00 | 0.01 | 0.01 | 60 | 1020.3 |
| 20260506182528 | 77 | 267 | 11.0 | 19.0 | 0.00 | 0.01 | 0.01 | 60 | 1020.2 |
| 20260506182032 | 78 | 261 | 8.0 | 18.0 | 0.00 | 0.01 | 0.01 | 60 | 1020.3 |
| 20260506181649 | 78 | 257 | 10.0 | 18.0 | 0.00 | 0.01 | 0.01 | 62 | 1020.4 |
| 20260506181033 | 78 | 267 | 11.0 | 17.0 | 0.00 | 0.01 | 0.01 | 62 | 1020.4 |
| 20260506180539 | 78 | 273 | 9.0 | 15.0 | 0.00 | 0.01 | 0.01 | 63 | 1020.4 |